Location: Helsinki
(60.1699°N, 24.9384°E)
Time: 21:35:04
(UTC+03:00)

SR - Visible Passes

Search period start: 02 October 2022 00:00
Search period end: 12 October 2022 00:00
Orbit: 573 x 879 km, 66.7° (Epoch: 02 October)

Date Brightness Start Highest point End Pass type
(mag) Time Alt. Az. Time Alt. Az. Time Alt. Az.
02 Oct ? 00:43:43 38° NE 00:43:43 38° NE 00:47:10 10° NE visible
02 Oct ? 02:23:05 41° NW 02:24:12 46° N 02:29:36 10° ENE visible
02 Oct ? 04:02:27 14° WNW 04:07:15 49° NNE 04:12:31 10° E visible
02 Oct ? 05:44:04 10° NW 05:49:48 86° SW 05:55:04 10° SE visible
02 Oct ? 23:54:51 23° NE 23:54:51 23° NE 23:56:53 10° NE visible
03 Oct ? 01:34:14 49° N 01:34:14 49° N 01:39:10 10° ENE visible
03 Oct ? 03:13:36 24° NW 03:16:41 45° N 03:21:57 10° E visible
03 Oct ? 04:53:45 10° NW 04:59:30 72° NNE 05:04:48 10° ESE visible
03 Oct ? 06:36:08 10° NW 06:41:24 43° SW 06:46:16 10° SSE visible
03 Oct ? 23:06:03 13° NE 23:06:03 13° NE 23:06:36 10° NE visible
04 Oct ? 00:45:26 36° NE 00:45:26 36° NE 00:48:49 10° NE visible
04 Oct ? 02:24:48 38° NW 02:26:06 44° N 02:31:24 10° ENE visible
04 Oct ? 04:04:11 14° NW 04:09:05 57° NNE 04:14:22 10° ESE visible
04 Oct ? 05:45:46 10° NW 05:51:22 64° SW 05:56:29 10° SSE visible
04 Oct ? 23:56:44 21° NE 23:56:44 21° NE 23:58:30 10° NE visible
05 Oct ? 01:36:07 44° N 01:36:07 44° N 01:40:55 10° ENE visible
05 Oct ? 03:15:30 25° NW 03:18:34 48° NNE 03:23:49 10° E visible
05 Oct ? 04:55:27 10° NW 05:01:10 90° SSW 05:06:25 10° SE visible
05 Oct ? 06:37:58 10° WNW 06:42:43 30° WSW 06:47:08 10° S visible
05 Oct ? 23:08:12 10° NE 23:08:12 10° NE 23:08:14 10° NE visible
06 Oct ? 00:47:37 30° NE 00:47:37 30° NE 00:50:29 10° ENE visible
06 Oct ? 02:27:00 40° NNW 02:28:00 44° N 02:33:14 10° ENE visible
06 Oct ? 04:06:25 17° NW 04:10:50 69° NNE 04:16:07 10° ESE visible
06 Oct ? 05:47:30 10° NW 05:52:48 45° SW 05:57:41 10° SSE visible
06 Oct ? 20:27:14 10° SSE 20:28:12 13° SE 20:28:12 13° SE visible
06 Oct ? 22:06:29 10° SSW 22:19:59 - NE 22:07:44 17° SSW visible
06 Oct ? 23:59:24 14° NE 23:59:24 14° NE 00:00:08 10° NE visible
07 Oct ? 01:38:51 37° NE 01:38:51 37° NE 01:42:41 10° ENE visible
07 Oct ? 03:18:17 35° NW 03:20:24 55° NNE 03:25:39 10° E visible
07 Oct ? 04:57:43 13° NW 05:02:44 67° SW 05:07:51 10° SE visible
07 Oct ? 06:40:01 10° WNW 06:43:54 20° WSW 06:47:34 10° SSW visible
07 Oct ? 19:39:51 10° ESE 19:41:31 11° ESE 19:41:39 11° E visible
07 Oct ? 21:16:47 10° S 21:21:10 36° SSE 21:21:10 36° SSE visible
07 Oct ? 22:58:10 10° WSW 23:11:43 - NE 23:00:40 26° WSW visible
08 Oct ? 00:51:11 15° ENE 00:51:11 15° ENE 00:52:13 10° ENE visible
08 Oct ? 02:30:40 44° NE 02:30:40 44° NE 02:35:05 10° E visible
08 Oct ? 04:10:09 36° NW 04:12:31 87° NE 04:17:44 10° SE visible
08 Oct ? 05:49:38 11° WNW 05:54:07 31° WSW 05:58:34 10° S visible
08 Oct ? 20:27:31 10° S 20:32:20 27° ESE 20:34:00 23° E visible
08 Oct ? 22:07:54 10° SW 22:13:28 74° S 22:13:28 74° S visible
08 Oct ? 23:50:32 10° W 00:04:09 - ENE 23:52:55 24° W visible
09 Oct ? 01:43:40 15° ENE 01:43:40 15° ENE 01:44:31 10° ENE visible
09 Oct ? 03:23:12 54° E 03:23:12 54° E 03:27:24 10° ESE visible
09 Oct ? 05:02:44 38° W 05:04:11 48° SW 05:09:04 10° SSE visible
09 Oct ? 06:42:34 10° WNW 06:44:57 13° WSW 06:47:13 10° SW visible
09 Oct ? 19:38:51 10° SSE 19:42:34 17° ESE 19:46:12 10° ENE visible
09 Oct ? 21:17:54 10° SSW 21:23:40 55° SE 21:25:38 38° ENE visible
09 Oct ? 22:59:57 10° WSW 23:05:03 58° WNW 23:05:03 58° WNW visible
10 Oct ? 00:43:08 10° WNW 00:44:28 17° WNW 00:44:28 17° WNW visible
10 Oct ? 02:36:44 11° E 02:36:44 11° E 02:36:55 10° E visible
10 Oct ? 04:16:17 35° SSE 04:16:17 35° SSE 04:19:11 10° SE visible
10 Oct ? 05:55:50 21° WSW 05:55:50 21° WSW 05:59:04 10° SSW visible
10 Oct ? 20:28:14 10° S 20:33:38 38° ESE 20:37:20 18° ENE visible
10 Oct ? 22:09:30 10° SW 22:15:27 82° NW 22:16:43 57° NE visible
10 Oct ? 23:52:29 10° W 23:56:06 34° WNW 23:56:06 34° WNW visible
11 Oct ? 05:09:33 12° S 05:09:33 12° S 05:09:59 10° S visible
11 Oct ? 19:39:01 10° SSE 19:43:44 25° ESE 19:48:21 10° ENE visible
11 Oct ? 21:19:16 10° SW 21:25:10 74° SE 21:28:07 30° ENE visible
11 Oct ? 23:01:50 10° W 23:07:30 54° NNW 23:07:30 54° NNW visible
